Regional Weather Roundup
Issued by NWS Goodland, KS

Home | Current Version | Previous Version | Graphics & Text | Print | Product List | Glossary Off
Versions: 1 2 3 4 5 6 7 8 9 10 11 12 13 14 15 16 17 18 19 20 21 22 23 24 25 26 27 28 29 30 31 32 33 34 35 36 37 38 39 40 41 42 43 44 45 46 47 48 49 50

000
ASUS43 KGLD 221508
RWRGLD

GOODLAND FORECAST AREA HOURLY WEATHER ROUNDUP
NATIONAL WEATHER SERVICE GOODLAND KS
900 AM MDT FRI MAY 22 2015

...OFFICIAL OBSERVATIONS...

CITY           SKY/WX    TMP DP  RH WIND       PRES   REMARKS
GOODLAND KS    LGT RAIN  48  47  96 SE15G29   30.08R
HILL CITY KS   CLOUDY    51  47  86 SE10      30.19R
IMPERIAL NEB   LGT RAIN  48  46  93 SE12      30.13S
MCCOOK NEB     LGT RAIN  49  47  93 SE13      30.16S FOG
AKRON CO       LGT RAIN  45  45 100 SE13      30.05F
BURLINGTON CO  LGT RAIN  47  45  93 SE22G31   30.04S FOG
LIMON CO       CLOUDY    46  45  96 SE9       30.01F
$$

...UNOFFICIAL OBSERVATIONS...

CITY           SKY/WX    TMP DP  RH WIND       PRES   REMARKS
GOVE KS          N/A     50  32  50 MISG        N/A
LENORA KS        N/A     49  32  52 MISG        N/A
SHARON SPRINGS   N/A     49  48  96 MISG        N/A
TRENTON NEB      N/A     48  32  54 SE12        N/A
KIT CARSON CO    N/A     47  45  92 MISG        N/A
YUMA CO          N/A     48  48 100 E18         N/A
$$


USA.gov is the U.S. government's official web portal to all federal, state and local government web resources and services.